Wetbulb
73.67 74.61 75.42 75.49 75.15 74.84 74.78 74.34 74.99 76.04 76.18 76.43 76.28 76.17 76.53 76.56 76.31 76.76 76.87 76.85 76.63 76.85 76.88 76.83 76.60 76.82 76.82 76.62 76.04 76.18 75.99 76.18 76.01 76.09 76.17 76.32 76.29 75.86 76.05 75.37 77.30 75.60 76.25
74.62 75.22 75.95 76.06 75.55 75.89 76.04 76.04 75.87 76.67 76.16 76.29 76.23 76.52 76.58 76.38 76.39 76.74 76.65 76.92 76.56 76.78 76.72 76.84 77.14 76.52 76.85 76.69 76.49 76.74 76.46 77.44 76.97 76.88 76.32 75.88 75.41 75.29 75.24 75.97 77.41 75.92 75.85
73.53 75.38 75.81 76.27 76.02 76.42 76.51 76.26 76.09 75.92 76.11 76.41 76.40 76.67 76.58 76.66 76.50 76.68 76.47 76.66 76.30 76.32 76.72 76.72 76.89 76.29 76.31 76.51 76.65 76.27 76.23 76.17 76.73 76.93 78.47 74.94 76.02 76.44 76.57 75.57 74.85 74.82 74.49
73.92 74.38 75.60 76.40 77.21 76.89 76.58 76.39 76.82 76.51 76.64 76.48 76.62 76.57 76.44 76.55 76.55 76.66 76.49 76.68 76.95 77.08 76.48 76.61 76.62 77.07 76.95 76.97 76.94 76.92 76.14 75.68 76.18 76.21 75.77 73.98 74.59 76.04 76.30 76.08 75.85 75.68 75.75
73.70 74.31 76.32 76.63 77.09 76.73 76.61 76.33 76.80 76.44 76.41 76.53 76.63 76.63 76.48 76.58 76.23 76.18 76.73 76.64 76.90 76.92 77.12 77.25 77.54 77.31 77.39 77.17 76.78 76.33 75.16 75.15 75.68 76.80 74.65 75.37 75.34 76.07 76.11 76.29 76.44 76.14 76.47
73.39 75.43 76.70 76.70 76.93 76.86 76.42 76.75 76.82 77.07 76.68 76.72 76.52 76.60 76.44 76.95 76.49 76.43 76.43 76.68 76.65 76.74 76.52 77.03 77.25 77.37 76.85 76.59 76.42 75.60 74.94 76.16 77.93 74.11 75.18 75.26 75.36 76.12 76.15 75.98 75.97 75.77 75.34
73.15 74.99 76.61 76.77 76.82 77.15 76.66 77.09 76.62 76.52 76.36 76.53 76.72 76.90 76.80 76.71 76.92 76.29 76.40 75.96 75.63 76.76 77.10 77.37 77.31 77.20 76.90 76.42 76.30 75.28 75.35 76.00 76.08 76.34 76.39 75.93 75.11 75.73 75.75 74.98 75.05 74.90 74.11
73.10 74.16 75.75 76.67 76.58 77.02 77.24 76.85 77.05 77.12 76.68 76.86 76.86 76.79 76.81 76.55 76.57 76.95 76.71 76.96 76.91 77.22 77.33 77.18 76.54 76.45 76.53 76.03 75.31 74.27 74.71 75.54 76.11 76.02 75.80 75.09 75.41 74.38 73.89 73.97 73.50 72.95 72.79
72.87 73.52 74.48 75.86 76.39 76.76 76.70 77.01 76.97 76.41 76.47 76.89 76.67 76.76 76.82 76.57 76.35 76.71 76.80 76.88 76.77 76.85 77.22 77.13 76.98 76.70 76.10 75.62 75.95 74.58 74.35 75.28 73.90 73.79 73.37 73.37 75.25 74.46 74.21 73.75 73.34 72.98 73.14
72.66 73.93 74.30 74.02 75.23 75.17 75.60 76.41 76.61 75.48 76.51 76.21 76.71 77.01 76.55 75.98 75.56 76.24 77.28 76.49 76.27 76.55 76.69 76.52 76.77 76.71 76.23 75.40 74.66 74.02 73.84 74.83 72.94 73.15 72.55 74.00 74.34 73.07 72.77 72.75 72.95 73.14 73.42
71.93 73.85 74.21 73.07 76.05 75.88 75.75 75.51 76.07 76.73 77.01 77.09 76.44 76.06 76.71 74.68 75.60 76.26 76.21 75.95 75.80 75.83 75.95 76.13 75.91 76.46 76.59 75.90 75.29 74.94 74.38 73.42 72.72 72.01 71.58 73.70 73.11 72.86 72.92 72.94 73.11 73.34 73.94
70.90 72.30 74.14 73.61 74.82 74.63 74.49 76.16 76.20 75.81 76.28 75.62 75.55 75.71 75.52 76.52 75.41 75.26 76.25 75.99 75.55 75.43 75.89 76.01 76.18 75.81 76.77 75.76 76.08 76.05 75.07 72.40 72.42 71.59 71.64 73.46 73.25 73.17 73.19 73.26 73.49 74.00 74.85
71.98 71.79 73.59 74.26 75.14 75.14 74.76 74.92 74.54 75.39 75.50 76.34 75.87 75.34 74.78 74.05 74.47 73.31 74.61 75.25 75.08 75.84 75.49 75.90 76.02 76.23 75.24 74.96 74.96 72.91 72.87 72.62 71.92 71.43 72.98 73.52 73.55 73.61 73.60 74.21 74.77 75.27 75.87
71.06 72.43 72.19 74.05 73.50 74.36 73.85 74.00 73.56 74.52 74.00 73.88 74.56 75.57 75.70 74.23 76.40 75.90 74.35 75.11 75.23 74.65 74.93 75.88 74.30 75.62 75.16 75.62 74.50 73.23 72.18 71.13 71.94 72.06 72.42 73.25 73.31 73.45 74.24 75.10 75.37 76.00 76.52
70.33 71.56 72.37 74.75 74.59 75.75 75.29 74.13 73.46 74.41 73.42 74.45 74.52 75.12 76.17 74.59 76.25 76.00 75.15 77.18 77.16 74.50 74.38 75.11 75.21 75.61 74.87 74.57 74.77 73.11 72.07 72.21 72.64 72.73 72.54 73.88 73.27 73.61 74.41 75.05 75.54 75.99 76.35
71.02 71.30 73.43 73.84 74.91 74.97 75.21 77.66 74.76 74.37 73.91 73.99 73.73 75.40 76.64 75.83 75.49 74.70 75.06 75.07 74.84 76.69 75.77 75.56 77.13 75.26 73.91 73.93 74.06 73.20 73.23 73.16 74.02 74.39 73.71 73.40 74.71 74.69 75.18 75.52 75.93 76.16 75.63
71.20 72.27 72.62 73.67 74.82 73.99 75.42 75.16 74.67 73.65 73.56 73.05 74.82 76.80 76.33 77.04 77.08 76.81 75.61 72.90 75.17 76.23 77.09 76.41 76.66 75.73 73.48 73.15 73.95 73.95 73.29 73.75 74.24 74.79 74.85 74.88 74.45 75.88 76.20 75.43 75.60 76.41 75.01
72.02 72.54 72.87 72.46 73.19 74.07 75.03 74.63 74.03 73.41 73.70 73.51 74.37 75.64 76.66 76.96 77.15 78.45 74.86 76.53 75.90 76.68 75.35 75.17 74.89 73.47 72.74 72.45 72.98 73.32 73.58 74.16 74.92 75.12 74.85 75.35 75.59 75.45 76.11 76.28 76.28 76.03 75.40
72.54 73.36 73.04 73.83 73.50 74.10 75.22 74.51 73.95 74.97 73.99 73.69 74.06 74.96 76.92 76.71 77.53 78.54 78.94 76.12 77.96 75.12 76.09 76.43 74.62 74.38 72.75 71.85 72.40 72.93 73.40 73.74 74.75 74.00 75.04 75.77 76.18 76.29 76.81 75.62 76.68 75.89 76.01
72.84 73.22 74.02 73.60 75.18 75.65 74.60 74.86 73.55 73.70 73.67 73.95 74.05 75.38 76.76 76.87 76.98 77.99 75.90 76.46 78.63 77.20 74.88 77.20 75.86 75.59 73.42 72.25 70.76 72.12 73.06 73.97 75.01 74.39 74.79 75.16 76.41 76.88 76.82 78.05 78.61 78.25 77.87
73.12 72.95 73.60 74.04 74.91 74.51 73.36 72.30 72.05 71.64 72.98 73.35 74.24 76.54 76.77 76.57 77.35 78.45 75.84 76.66 75.51 75.97 78.44 77.03 75.97 75.79 73.70 75.24 72.59 71.63 72.66 73.79 73.52 73.63 74.62 74.65 76.04 75.94 76.43 77.39 78.02 79.14 77.99
72.53 73.00 73.28 74.56 74.96 74.46 73.42 74.60 73.78 73.62 73.21 74.28 74.95 76.23 76.27 76.27 76.82 77.05 78.60 76.55 76.42 76.31 78.28 77.99 77.84 75.01 74.02 74.20 73.62 70.45 68.24 70.31 71.91 72.98 74.29 74.81 75.96 76.20 76.75 76.95 77.34 78.98 79.24
72.15 73.13 74.16 74.90 75.40 75.83 76.88 74.44 74.41 75.33 76.51 74.27 74.90 74.56 75.93 76.34 76.63 77.44 77.52 77.75 78.13 78.29 76.39 78.28 77.62 78.37 73.87 74.34 77.35 73.48 70.32 68.46 70.36 72.93 74.71 74.32 76.09 75.39 76.04 76.29 76.41 77.55 78.25
72.24 73.19 74.95 75.40 75.49 75.74 77.01 75.46 76.93 73.24 72.58 73.15 73.92 74.78 75.79 76.46 76.66 76.93 77.20 76.93 77.72 77.66 76.06 78.06 77.12 78.42 78.61 74.29 73.54 73.34 76.40 75.44 70.26 68.35 73.63 74.26 75.14 75.19 75.91 75.66 75.96 76.93 77.72
72.77 72.49 73.89 75.31 76.55 76.66 77.40 76.26 75.11 74.96 73.26 73.34 73.33 77.11 77.93 78.25 77.18 76.52 77.26 77.25 77.08 75.69 78.31 78.70 77.94 78.52 77.46 75.75 73.64 73.88 75.15 73.01 74.82 70.93 68.62 69.95 73.48 75.18 75.27 75.64 76.17 76.28 77.12
73.00 72.94 73.18 74.88 75.60 76.56 76.09 75.88 75.96 76.08 75.73 73.26 75.15 73.67 73.75 75.23 75.58 77.27 77.20 77.81 77.88 76.88 77.36 77.37 78.23 77.84 78.83 78.31 76.87 75.84 73.31 72.21 72.42 71.46 70.44 72.66 71.94 73.06 75.47 75.96 76.32 76.00 76.42
MSLP
1012.86 1014.35 1015.16 1015.33 1015.42 1015.67 1015.83 1016.08 1016.19 1016.07 1016.10 1015.94 1015.97 1015.90 1016.04 1016.16 1016.27 1016.14 1016.08 1016.15 1016.23 1016.24 1016.31 1016.48 1016.42 1016.75 1016.85 1016.86 1016.89 1017.06 1017.09 1017.15 1017.22 1017.22 1017.27 1017.42 1017.68 1017.65 1017.56 1017.44 1017.09 1017.38 1017.98
1012.43 1014.16 1015.18 1015.42 1015.61 1015.65 1015.90 1016.11 1016.13 1016.12 1016.21 1016.23 1016.15 1016.09 1016.19 1016.37 1016.52 1016.34 1016.38 1016.38 1016.48 1016.56 1016.58 1016.62 1016.66 1016.87 1017.08 1017.21 1017.36 1017.28 1017.34 1017.35 1017.37 1017.38 1017.38 1017.70 1017.83 1017.85 1017.92 1017.83 1017.46 1018.09 1018.28
1012.56 1014.25 1015.04 1015.71 1015.71 1015.99 1016.07 1016.19 1016.25 1016.44 1016.46 1016.45 1016.44 1016.35 1016.42 1016.60 1016.63 1016.58 1016.80 1016.68 1016.80 1016.74 1016.78 1016.78 1016.96 1017.06 1017.16 1017.42 1017.53 1017.47 1017.54 1017.53 1017.51 1017.19 1016.90 1017.03 1017.87 1018.19 1018.16 1018.21 1018.43 1018.63 1018.63
1012.03 1013.23 1014.65 1015.85 1015.89 1016.13 1016.28 1016.35 1016.47 1016.53 1016.65 1016.62 1016.54 1016.64 1016.82 1016.77 1016.93 1017.07 1017.08 1016.90 1016.99 1017.00 1017.06 1017.07 1017.18 1017.28 1017.40 1017.67 1017.81 1017.82 1017.75 1017.59 1017.48 1017.35 1016.97 1016.72 1017.73 1018.57 1018.62 1018.64 1018.77 1018.82 1018.79
1013.32 1013.84 1015.33 1015.93 1015.99 1016.32 1016.31 1016.52 1016.62 1016.69 1016.77 1016.76 1016.78 1016.99 1017.19 1017.21 1017.20 1017.27 1017.22 1017.19 1017.16 1017.33 1017.25 1017.46 1017.34 1017.63 1017.75 1017.91 1018.09 1018.12 1017.84 1017.61 1017.29 1017.07 1016.82 1017.17 1017.80 1018.88 1018.97 1018.93 1019.01 1019.04 1019.00
1013.22 1014.11 1015.73 1016.04 1016.18 1016.41 1016.55 1016.74 1016.84 1016.89 1016.97 1017.06 1017.24 1017.35 1017.50 1017.45 1017.45 1017.52 1017.59 1017.59 1017.63 1017.54 1017.68 1017.83 1017.79 1017.86 1018.10 1018.33 1018.45 1018.38 1018.19 1017.92 1017.19 1016.84 1017.34 1018.05 1018.54 1019.15 1019.21 1019.19 1019.23 1019.37 1019.38
1012.75 1014.13 1015.43 1016.13 1016.48 1016.59 1016.69 1016.90 1017.18 1017.23 1017.29 1017.38 1017.45 1017.61 1017.61 1017.69 1017.80 1017.92 1017.99 1018.17 1017.96 1017.88 1018.01 1018.02 1018.10 1018.27 1018.55 1018.74 1018.82 1018.64 1018.26 1018.14 1017.17 1017.26 1017.88 1018.33 1019.17 1019.46 1019.44 1019.51 1019.52 1019.58 1019.60
1012.63 1013.62 1015.26 1016.45 1016.68 1016.80 1016.95 1017.22 1017.29 1017.46 1017.60 1017.68 1017.80 1017.82 1017.87 1017.93 1018.01 1018.23 1018.30 1018.18 1018.24 1018.24 1018.31 1018.42 1018.62 1018.72 1018.90 1019.04 1019.07 1018.81 1018.39 1018.24 1017.69 1017.72 1018.11 1018.64 1019.63 1019.66 1019.74 1019.76 1019.74 1019.71 1019.70
1012.48 1013.12 1014.51 1015.69 1016.73 1016.94 1017.29 1017.44 1017.51 1017.73 1017.83 1017.91 1018.00 1018.05 1018.10 1018.23 1018.39 1018.48 1018.50 1018.56 1018.57 1018.71 1018.67 1018.76 1018.86 1019.03 1019.07 1019.16 1019.25 1019.09 1018.73 1018.20 1017.65 1017.55 1017.79 1018.77 1019.81 1019.80 1019.84 1019.92 1019.89 1019.89 1019.88
1012.46 1013.22 1013.91 1014.75 1015.48 1016.37 1016.99 1017.47 1017.73 1017.95 1017.98 1018.13 1018.14 1018.21 1018.24 1018.36 1018.47 1018.63 1018.72 1018.85 1018.99 1018.89 1018.94 1018.99 1019.06 1019.09 1019.17 1019.28 1019.23 1019.04 1018.78 1018.41 1017.70 1017.44 1018.13 1019.44 1019.87 1019.87 1019.99 1020.05 1020.02 1019.99 1019.90
1013.06 1014.08 1014.05 1014.55 1015.73 1016.67 1016.88 1017.56 1017.85 1018.08 1018.09 1018.24 1018.30 1018.28 1018.13 1017.25 1017.80 1018.36 1018.96 1019.10 1019.08 1019.04 1019.12 1019.22 1019.12 1019.05 1019.20 1019.01 1018.86 1018.88 1018.82 1017.57 1017.27 1017.50 1018.71 1019.91 1019.94 1019.98 1020.05 1020.08 1020.04 1019.93 1019.76
1013.58 1014.09 1014.44 1014.45 1015.65 1016.16 1016.48 1017.15 1017.80 1017.84 1017.77 1017.73 1017.69 1017.59 1017.22 1017.67 1018.02 1018.23 1018.94 1019.13 1019.11 1019.10 1019.17 1019.09 1018.78 1018.88 1018.91 1018.04 1018.06 1018.49 1017.93 1017.46 1017.34 1017.75 1019.20 1019.94 1019.98 1019.99 1019.97 1019.93 1019.87 1019.75 1019.58
1013.30 1014.29 1014.94 1015.41 1015.77 1016.44 1016.73 1016.62 1017.50 1017.75 1017.76 1018.17 1018.05 1017.53 1017.92 1017.93 1017.89 1017.94 1018.50 1018.47 1018.53 1018.83 1018.50 1018.56 1018.38 1018.04 1017.20 1016.81 1016.71 1016.89 1017.53 1017.25 1017.22 1017.88 1019.57 1019.94 1019.95 1019.95 1019.87 1019.80 1019.67 1019.59 1019.50
1013.52 1014.14 1015.07 1015.85 1016.26 1017.06 1017.29 1016.55 1017.37 1017.25 1017.08 1017.37 1017.93 1018.16 1017.83 1017.23 1017.56 1017.18 1017.22 1017.65 1017.90 1017.52 1018.05 1017.59 1017.40 1017.78 1017.61 1017.50 1016.70 1016.95 1016.87 1016.88 1017.01 1017.97 1019.57 1019.73 1019.82 1019.87 1019.81 1019.74 1019.67 1019.50 1019.34
1014.03 1014.55 1015.35 1016.26 1017.24 1017.10 1016.82 1016.66 1017.24 1016.64 1016.37 1017.53 1018.00 1018.01 1017.94 1018.42 1017.89 1017.65 1017.78 1017.58 1017.36 1017.23 1017.42 1017.43 1017.29 1017.35 1017.57 1017.44 1017.32 1017.25 1017.02 1017.22 1017.20 1017.59 1018.83 1019.58 1019.73 1019.67 1019.60 1019.55 1019.40 1019.27 1019.23
1014.21 1014.68 1014.96 1016.11 1017.21 1017.17 1016.57 1016.92 1016.50 1016.55 1016.94 1017.11 1017.60 1018.05 1018.42 1017.80 1018.35 1017.94 1017.74 1017.58 1017.48 1017.27 1017.26 1017.43 1017.54 1017.08 1016.95 1017.44 1017.63 1017.45 1017.41 1017.65 1017.70 1017.52 1018.26 1019.08 1019.36 1019.34 1019.26 1019.20 1019.10 1019.10 1019.18
1014.03 1014.65 1014.99 1015.79 1016.45 1017.72 1017.15 1017.41 1016.94 1016.91 1016.98 1017.03 1017.46 1018.55 1018.29 1018.25 1018.22 1017.83 1017.55 1018.75 1017.24 1017.99 1018.12 1017.97 1017.76 1017.31 1017.01 1017.15 1017.84 1017.61 1017.59 1017.86 1018.15 1018.17 1017.59 1017.69 1018.65 1018.96 1018.90 1018.90 1018.89 1018.87 1019.03
1013.67 1014.36 1015.28 1015.25 1015.95 1017.06 1016.87 1017.24 1016.76 1016.87 1016.88 1017.09 1017.77 1018.40 1018.48 1018.54 1018.47 1018.03 1017.79 1017.43 1017.62 1017.37 1017.10 1017.05 1017.06 1016.99 1017.04 1017.26 1017.45 1017.25 1017.39 1017.70 1018.23 1018.14 1017.66 1017.56 1017.67 1017.48 1018.20 1018.46 1018.50 1018.44 1018.59
1013.77 1014.86 1015.48 1015.66 1015.97 1016.62 1017.09 1017.22 1017.06 1017.28 1017.13 1017.22 1017.50 1017.61 1018.47 1018.62 1018.51 1017.99 1017.46 1017.81 1017.95 1017.09 1016.95 1017.10 1017.10 1017.27 1017.33 1017.16 1017.24 1017.32 1017.26 1017.50 1017.77 1017.29 1017.70 1017.72 1017.43 1017.56 1017.44 1018.11 1018.08 1018.12 1018.28
1013.96 1015.17 1015.70 1016.01 1016.27 1016.77 1017.13 1017.27 1017.05 1017.77 1017.32 1017.36 1017.43 1017.53 1018.48 1018.38 1018.56 1018.16 1017.68 1017.94 1017.88 1017.25 1017.24 1017.44 1017.63 1017.54 1017.32 1017.04 1016.49 1016.93 1017.12 1017.24 1017.32 1017.20 1017.10 1017.11 1017.13 1017.43 1016.84 1017.42 1017.50 1017.36 1018.14
1013.79 1015.28 1015.95 1016.50 1016.79 1017.01 1017.15 1017.16 1017.09 1017.23 1017.39 1017.47 1017.32 1018.10 1018.55 1018.63 1018.62 1018.56 1018.00 1017.96 1018.19 1017.62 1017.88 1018.37 1018.33 1018.29 1017.57 1017.69 1017.16 1017.10 1017.30 1017.48 1017.42 1017.13 1016.84 1016.67 1016.69 1016.90 1017.17 1017.42 1017.15 1017.29 1017.64
1013.53 1015.03 1016.06 1016.58 1017.20 1017.02 1017.14 1016.95 1016.90 1016.92 1017.27 1017.43 1017.78 1018.18 1018.63 1018.65 1018.89 1018.61 1018.43 1017.98 1017.70 1018.17 1018.36 1018.44 1018.33 1017.75 1017.40 1017.75 1017.44 1016.76 1016.61 1016.72 1016.50 1016.31 1016.44 1016.64 1016.84 1016.86 1016.83 1016.93 1017.27 1017.58 1017.20
1012.96 1014.14 1015.40 1016.42 1016.90 1016.76 1016.67 1016.79 1016.98 1017.10 1017.27 1017.64 1017.86 1018.05 1018.24 1018.59 1018.74 1018.88 1018.83 1018.70 1017.93 1017.91 1017.72 1018.18 1018.32 1018.07 1018.05 1017.72 1017.96 1017.46 1016.41 1016.41 1015.38 1015.36 1016.03 1016.02 1016.80 1016.68 1016.77 1016.87 1017.02 1017.35 1017.58
1012.45 1013.50 1014.85 1015.84 1016.53 1016.79 1016.75 1016.80 1017.06 1017.11 1017.00 1017.13 1017.34 1017.51 1017.97 1018.57 1018.50 1018.68 1018.79 1018.89 1018.60 1017.14 1017.75 1017.87 1018.23 1018.49 1017.96 1017.60 1017.64 1017.35 1017.65 1017.00 1015.64 1016.45 1017.42 1015.47 1016.17 1016.21 1016.81 1016.91 1016.58 1016.91 1017.14
1011.96 1013.03 1014.02 1015.32 1016.28 1016.47 1016.64 1016.89 1016.98 1016.87 1016.78 1017.09 1017.07 1017.72 1018.00 1018.32 1018.34 1018.46 1018.73 1018.87 1018.86 1018.27 1018.08 1018.49 1018.84 1018.99 1018.47 1018.10 1017.19 1017.17 1017.52 1016.99 1016.35 1016.67 1016.05 1016.03 1015.38 1016.21 1016.65 1016.97 1016.86 1016.51 1016.67
1011.34 1012.53 1013.47 1014.96 1016.07 1016.46 1016.77 1017.25 1017.18 1016.71 1016.97 1016.67 1016.91 1017.71 1017.84 1017.79 1018.27 1018.47 1018.59 1018.85 1018.94 1018.80 1018.92 1018.85 1019.03 1019.17 1019.21 1018.94 1018.50 1018.17 1017.38 1016.87 1016.41 1016.29 1016.07 1015.85 1015.85 1016.28 1016.73 1016.78 1016.74 1016.71 1016.81
Wind_Speed
14 13 10 13 12 12 12 12 10 11 12 13 13 12 13 13 11 12 13 13 13 13 13 14 15 16 15 14 15 14 14 14 14 15 15 15 13 11 10 7 13 16 15
18 15 12 12 13 13 13 12 12 12 13 13 13 13 13 12 12 12 13 14 13 14 14 14 14 14 15 14 14 12 13 12 14 15 18 16 14 13 13 17 19 14 14
19 16 14 13 14 14 14 13 13 14 12 14 14 13 13 13 12 12 12 14 14 15 16 15 14 14 13 13 13 13 10 10 11 16 18 13 13 13 14 15 14 12 12
16 17 17 12 14 15 15 14 13 15 13 13 14 14 12 13 13 12 13 14 13 13 15 15 16 16 16 15 13 11 7 5 7 7 8 14 14 13 13 13 12 11 12
20 16 15 14 13 15 15 14 13 14 14 13 13 14 13 12 13 13 14 13 13 15 14 14 15 15 15 14 14 9 2 4 7 6 13 11 12 11 10 9 13 11 13
17 20 15 13 13 14 15 15 13 13 13 13 13 13 13 13 14 14 14 15 14 14 14 14 14 15 14 13 12 6 2 8 9 12 14 14 12 11 11 11 11 10 9
14 18 16 13 13 14 14 14 14 14 13 12 12 13 13 13 14 13 14 13 13 12 12 13 14 14 13 12 9 4 4 7 7 14 12 12 11 10 9 8 9 9 7
15 19 16 13 15 13 14 14 15 15 14 12 13 13 13 13 13 13 12 14 13 14 13 14 14 13 11 11 9 5 9 11 12 11 9 10 8 8 8 7 7 7 7
15 16 16 16 13 13 12 13 14 14 12 13 12 13 12 12 12 12 12 12 13 13 13 11 10 11 11 10 8 3 5 8 8 6 12 8 9 8 7 7 6 6 5
9 15 10 15 15 13 12 13 15 13 14 12 12 13 14 12 12 12 12 10 10 11 10 10 8 9 10 9 6 6 8 10 8 9 9 8 6 7 6 6 6 5 5
10 12 9 14 16 11 10 13 13 13 14 13 10 9 12 10 11 12 12 8 8 8 7 6 5 8 9 10 9 10 10 5 6 8 8 7 6 6 6 5 5 4 5
10 12 6 12 12 12 10 11 11 9 8 5 6 5 5 11 9 11 9 7 5 5 7 7 9 9 12 9 7 11 7 5 5 9 8 7 5 5 4 4 3 4 5
14 7 13 9 9 10 7 9 6 5 7 6 7 4 8 8 9 8 7 7 7 10 7 9 8 7 3 2 1 7 5 7 5 8 9 7 4 2 2 3 3 5 6
10 13 15 7 6 11 5 4 9 7 8 7 7 5 4 4 2 3 4 7 4 5 3 6 6 3 4 4 6 6 6 6 6 8 8 7 4 1 2 3 5 6 7
8 12 13 12 5 6 10 7 6 6 7 11 8 7 2 5 2 2 2 1 2 4 5 2 4 3 5 5 5 5 6 7 6 9 6 9 5 4 4 5 6 7 7
9 7 16 14 13 7 3 3 4 5 9 8 9 4 4 3 1 7 6 7 2 1 2 4 5 2 6 7 4 6 7 5 5 6 8 7 9 9 9 8 8 7 7
11 12 12 15 15 8 10 7 7 7 7 6 9 7 3 1 2 3 2 7 5 4 1 3 6 2 5 7 7 5 6 7 6 3 3 8 8 13 11 9 8 7 6
10 10 11 10 15 15 10 7 6 6 6 6 8 7 5 3 3 6 5 1 4 4 5 3 5 4 5 6 7 7 6 6 6 5 2 3 1 1 11 11 9 8 6
13 9 7 5 12 12 10 7 6 6 5 5 7 8 4 6 4 8 0 6 5 4 1 3 3 2 3 5 6 5 5 7 7 6 3 5 3 4 5 12 11 9 4
14 10 6 7 9 8 9 7 7 7 5 6 6 7 6 5 4 6 4 3 6 5 6 6 1 0 4 4 6 6 4 3 1 3 5 6 3 4 4 5 6 4 8
15 10 9 8 6 9 9 9 7 9 7 7 5 7 5 6 3 6 3 6 8 5 8 3 4 3 2 1 3 5 4 4 6 4 4 4 3 4 4 5 4 5 6
17 14 13 12 11 9 9 8 7 7 8 5 4 7 7 6 4 6 6 2 6 1 3 2 3 3 2 3 7 6 6 6 7 8 4 2 4 3 1 2 4 5 6
15 15 14 13 13 11 9 7 7 6 4 3 6 7 7 6 7 3 3 5 6 3 6 4 1 5 5 3 6 5 4 4 8 9 8 5 2 4 4 4 4 3 4
15 14 17 15 13 10 10 6 7 7 7 6 5 6 10 8 8 7 4 3 4 7 6 5 4 7 6 3 5 3 4 7 9 2 14 7 4 4 7 7 3 8 2
16 14 15 13 12 12 10 5 10 9 7 8 8 8 5 7 6 7 5 4 3 6 3 3 3 4 6 6 5 3 0 5 5 6 6 6 3 5 4 2 3 4 5
16 15 15 15 13 12 12 8 9 8 7 7 6 7 8 9 8 7 6 4 4 5 3 4 1 2 4 5 7 4 6 5 4 4 7 4 5 3 1 3 1 4 5
Wind_Direction
118 115 123 127 126 123 119 140 141 110 111 111 103 97 98 94 96 98 91 92 90 90 91 90 98 99 93 95 97 98 98 100 101 101 96 89 83 75 62 83 144 90 84
121 110 119 123 125 120 121 129 115 109 106 97 99 94 91 95 95 91 90 89 90 89 90 94 93 99 103 103 101 109 111 115 118 114 107 96 87 78 73 65 66 85 89
107 127 122 119 115 115 117 112 112 106 97 98 99 96 93 90 90 87 96 90 88 89 87 91 98 96 97 102 102 103 110 135 142 148 149 101 88 81 74 81 91 96 94
126 125 111 116 113 114 113 116 111 107 101 99 93 90 91 88 93 93 90 90 90 88 92 91 96 98 99 100 100 99 111 152 171 205 241 92 90 85 87 92 95 97 100
101 102 106 113 116 114 117 114 112 110 104 98 96 96 94 95 90 90 90 86 83 91 88 99 96 100 102 100 99 100 138 301 321 253 75 85 96 88 90 107 110 86 66
80 99 113 115 112 115 117 112 111 105 107 103 102 105 105 94 96 93 91 87 85 87 92 97 91 94 92 92 96 102 21 331 329 107 102 71 74 88 84 78 80 82 82
140 122 111 116 120 121 116 114 113 111 107 108 98 99 100 97 95 98 90 91 90 84 96 95 87 93 96 97 94 71 323 315 92 68 83 92 88 87 90 95 85 78 74
110 114 117 113 125 124 121 115 115 109 106 101 100 102 94 99 98 99 100 92 91 84 99 93 94 92 98 100 94 45 344 325 117 106 101 86 90 94 89 85 80 75 69
120 117 132 131 123 125 119 114 115 110 110 105 105 104 104 100 104 102 97 93 92 92 96 96 97 101 99 99 103 95 290 300 95 130 119 108 93 90 91 84 74 64 56
118 96 109 139 137 126 125 117 121 119 116 114 120 129 125 118 122 124 120 96 96 93 94 93 103 125 116 114 138 189 236 256 121 114 91 89 103 93 86 75 62 46 24
120 101 151 125 101 108 127 117 116 115 118 125 135 154 179 132 140 146 78 107 102 100 106 114 139 150 147 155 182 207 232 226 112 92 95 105 97 88 75 59 43 19 357
131 139 95 110 137 141 126 134 121 138 124 117 124 141 161 64 59 93 105 115 120 144 155 174 217 200 200 169 179 209 224 107 111 101 97 114 93 77 64 49 17 352 329
129 160 122 118 132 109 137 144 127 132 117 147 147 151 112 143 161 138 142 157 155 189 195 194 202 231 338 90 19 87 114 143 134 92 108 120 113 88 39 11 341 329 327
141 149 122 140 89 132 180 184 131 192 134 147 98 135 175 135 8 139 96 75 197 142 156 247 86 79 127 288 69 120 138 122 122 106 124 153 161 157 326 314 315 309 315
173 128 134 141 105 175 170 156 174 177 151 101 171 164 64 93 104 68 136 82 23 185 117 137 103 76 154 146 131 128 91 89 122 119 126 171 169 206 246 266 276 285 308
153 151 134 145 145 172 194 97 127 147 103 176 130 143 151 227 322 138 179 167 159 108 71 102 12 161 113 112 130 114 125 125 68 141 138 155 189 210 229 245 266 292 323
148 152 136 142 144 170 149 150 204 128 182 138 113 161 99 233 236 131 152 352 136 84 179 183 225 207 99 108 110 153 110 126 130 124 192 151 169 208 217 228 250 273 298
166 144 165 164 151 163 151 175 183 173 158 162 141 154 171 99 176 244 186 203 111 222 211 147 228 136 131 149 146 167 143 123 140 174 147 281 335 201 202 208 223 244 272
135 136 172 161 157 153 144 175 173 134 188 158 160 153 157 163 198 282 257 95 236 226 128 184 202 176 150 153 171 150 172 135 202 166 132 237 164 281 346 185 216 218 218
147 140 127 160 135 149 160 165 178 168 187 164 182 115 154 146 196 273 101 174 254 280 153 31 49 165 209 212 176 151 172 156 174 183 188 227 170 267 313 18 315 99 173
143 153 150 149 171 167 174 182 170 171 173 177 171 110 171 126 107 257 205 229 92 287 60 156 163 217 183 40 310 164 181 226 191 226 236 257 60 312 3 15 2 345 150
156 168 147 165 179 181 182 195 181 175 170 177 133 158 177 185 176 211 334 239 49 275 113 188 320 265 167 178 287 190 194 194 216 216 179 295 72 302 300 28 3 31 336
159 154 159 177 175 212 161 169 187 178 142 154 145 174 185 197 200 263 213 321 321 284 162 152 237 313 295 143 325 324 314 21 191 171 175 199 68 333 15 325 91 85 0
162 174 161 178 178 195 185 144 171 203 190 195 186 193 152 196 217 185 211 224 257 314 197 107 72 330 341 283 166 246 332 328 339 58 294 143 179 235 81 318 20 115 247
159 174 168 179 169 187 209 251 172 209 194 175 199 124 267 176 207 207 191 206 224 267 56 357 12 347 309 324 310 139 231 297 296 322 338 230 33 99 46 357 345 11 36
162 173 169 166 182 190 200 193 231 229 280 188 193 158 207 176 190 214 195 212 224 249 244 249 166 251 341 350 328 331 303 315 325 319 308 329 359 67 18 203 120 8 26